Location: North Evanston
(42.0634°N, 87.6976°W)
Time: 14:00:30
(UTC+00:00)

Vanguard 2 Rocket - Pass Details

Date: 10 May 2026
Orbit: 553 x 3286 km, 32.9° (Epoch: 6 June)

Event Time Altitude Azimuth Distance (km) Brightness Sun altitude
Rises 23:02:01 0° 278° (W) 7,179 13.1 20.1°
Reaches altitude 10° 23:07:06 10° 273° (W) 6,228 13.6 19.2°
Maximum altitude 23:25:07 45° 210° (SSW) 3,693 10.4 15.9°
Drops below altitude 10° 23:38:48 10° 144° (SE) 4,797 10.2 13.4°
Sets 23:42:10 0° 138° (SE) 5,470 10.4 12.8°
